Zurück zum Katalog

STPSAT 2

USA 217

AktivMilitärLEO
NORAD 37222·PAYLOAD·🇺🇸 United States

Gestartet Nov 20, 2010 von Kodiak Launch Complex

Loading…

Nächste Überflüge (nächste 24 Stunden)

TLE

VeraltetSource: Mike McCants

Epoche: Jul 14, 2026, 21:56 UTC

1 37222U 10062A   26195.91457206 0.00000100  00000-0  12492-4 0    08
2 37222  71.9600 101.0342 0021410  53.3403 306.6597 14.82146645    05

Verfolge STPSAT 2 in Echtzeit mit AllMySat

Download on the App Store